Time,TemperatureF,DewpointF,PressureIn,WindDirection,WindDirectionDegrees,WindSpeedMPH,WindSpeedGustMPH,Humidity,HourlyPrecipIn,Conditions,Clouds,dailyrainin,SoftwareType,DateUTC
2013-03-02 00:00:00,47.1,46.3,30.21,West,259,2.0,3.0,97,0.00,,,0.00,WeatherCatV1.10B1784,2013-03-02 08:00:00,
2013-03-02 00:05:00,47.2,46.4,30.21,NW,305,2.0,3.0,97,0.00,,,0.00,WeatherCatV1.10B1784,2013-03-02 08:05:00,
2013-03-02 00:10:00,47.4,46.6,30.20,SW,228,0.0,0.0,97,0.00,,,0.00,WeatherCatV1.10B1784,2013-03-02 08:10:00,
2013-03-02 00:15:00,47.1,46.3,30.21,North,355,2.0,4.0,97,0.00,,,0.00,WeatherCatV1.10B1784,2013-03-02 08:15:00,
2013-03-02 00:20:00,46.8,46.0,30.20,NW,325,2.0,2.0,97,0.00,,,0.00,WeatherCatV1.10B1784,2013-03-02 08:20:00,
2013-03-02 00:25:00,46.7,45.9,30.20,West,259,1.0,1.0,97,0.00,,,0.01,WeatherCatV1.10B1784,2013-03-02 08:25:00,
2013-03-02 00:30:00,46.7,45.9,30.20,West,266,0.0,1.0,97,0.00,,,0.01,WeatherCatV1.10B1784,2013-03-02 08:30:00,
2013-03-02 00:35:00,46.7,45.9,30.20,West,269,0.0,0.0,97,0.00,,,0.01,WeatherCatV1.10B1784,2013-03-02 08:35:00,
2013-03-02 00:40:00,46.7,45.9,30.19,West,269,0.0,0.0,97,0.00,,,0.01,WeatherCatV1.10B1784,2013-03-02 08:40:00,
2013-03-02 00:45:00,46.7,45.9,30.20,West,269,0.0,1.0,97,0.00,,,0.01,WeatherCatV1.10B1784,2013-03-02 08:45:00,
2013-03-02 00:50:00,46.6,45.8,30.20,SW,221,1.0,1.0,97,0.00,,,0.01,WeatherCatV1.10B1784,2013-03-02 08:50:00,
2013-03-02 00:55:00,46.5,45.7,30.19,SW,232,0.0,0.0,97,0.00,,,0.01,WeatherCatV1.10B1784,2013-03-02 08:55:00,
2013-03-02 01:00:00,46.5,45.7,30.19,SE,138,1.0,2.0,97,0.00,,,0.01,WeatherCatV1.10B1784,2013-03-02 09:00:00,
2013-03-02 01:05:00,46.5,45.7,30.19,SSE,153,0.0,1.0,97,0.00,,,0.01,WeatherCatV1.10B1784,2013-03-02 09:05:00,
2013-03-02 01:10:00,46.5,45.7,30.19,ESE,120,0.0,0.0,97,0.00,,,0.01,WeatherCatV1.10B1784,2013-03-02 09:10:00,
2013-03-02 01:15:00,46.5,45.7,30.19,SSE,163,0.0,0.0,97,0.00,,,0.01,WeatherCatV1.10B1784,2013-03-02 09:15:00,
2013-03-02 01:20:00,46.5,45.7,30.19,SSE,163,0.0,0.0,97,0.00,,,0.01,WeatherCatV1.10B1784,2013-03-02 09:20:00,
2013-03-02 01:25:00,46.5,46.0,30.19,SW,226,0.0,0.0,98,0.00,,,0.01,WeatherCatV1.10B1784,2013-03-02 09:25:00,
2013-03-02 01:30:00,46.5,46.0,30.19,SW,221,0.0,0.0,98,0.00,,,0.01,WeatherCatV1.10B1784,2013-03-02 09:30:00,
2013-03-02 01:35:00,46.5,46.0,30.19,SW,221,0.0,0.0,98,0.00,,,0.01,WeatherCatV1.10B1784,2013-03-02 09:35:00,
2013-03-02 01:40:00,46.5,46.0,30.19,SW,221,0.0,0.0,98,0.00,,,0.01,WeatherCatV1.10B1784,2013-03-02 09:40:00,
2013-03-02 01:45:00,46.4,45.6,30.19,SW,221,0.0,0.0,97,0.00,,,0.01,WeatherCatV1.10B1784,2013-03-02 09:45:00,
2013-03-02 01:50:00,46.4,45.9,30.18,SW,221,0.0,0.0,98,0.00,,,0.01,WeatherCatV1.10B1784,2013-03-02 09:50:00,
2013-03-02 01:55:00,46.5,46.0,30.18,East,79,0.0,0.0,98,0.00,,,0.01,WeatherCatV1.10B1784,2013-03-02 09:55:00,
2013-03-02 02:00:00,46.5,46.0,30.18,East,79,0.0,0.0,98,0.00,,,0.01,WeatherCatV1.10B1784,2013-03-02 10:00:00,
2013-03-02 02:05:00,46.4,45.6,30.18,East,79,0.0,0.0,97,0.00,,,0.01,WeatherCatV1.10B1784,2013-03-02 10:05:00,
2013-03-02 02:10:00,46.3,45.5,30.18,East,79,0.0,0.0,97,0.00,,,0.01,WeatherCatV1.10B1784,2013-03-02 10:10:00,
2013-03-02 02:13:00,46.3,45.5,30.18,East,79,0.0,0.0,97,0.00,,,0.01,WeatherCatV1.10B1784,2013-03-02 10:13:00,
2013-03-02 02:18:00,46.2,45.7,30.17,East,79,0.0,0.0,98,0.00,,,0.01,WeatherCatV1.10B1784,2013-03-02 10:18:00,
2013-03-02 02:23:00,46.1,45.6,30.18,East,79,0.0,0.0,98,0.00,,,0.01,WeatherCatV1.10B1784,2013-03-02 10:23:00,
2013-03-02 02:28:00,46.1,45.6,30.17,North,1,0.0,0.0,98,0.00,,,0.01,WeatherCatV1.10B1784,2013-03-02 10:28:00,
2013-03-02 02:33:00,46.1,45.6,30.17,North,1,0.0,0.0,98,0.00,,,0.01,WeatherCatV1.10B1784,2013-03-02 10:33:00,
2013-03-02 02:35:00,46.1,45.6,30.17,North,1,0.0,0.0,98,0.00,,,0.01,WeatherCatV1.10B1784,2013-03-02 10:35:00,
2013-03-02 02:40:00,46.1,45.6,30.17,SW,235,0.0,0.0,98,0.00,,,0.01,WeatherCatV1.10B1784,2013-03-02 10:40:00,
2013-03-02 02:45:00,46.1,45.6,30.17,SW,223,1.0,2.0,98,0.00,,,0.01,WeatherCatV1.10B1784,2013-03-02 10:45:00,
2013-03-02 02:50:00,46.2,45.7,30.17,SSW,203,1.0,1.0,98,0.00,,,0.01,WeatherCatV1.10B1784,2013-03-02 10:50:00,
2013-03-02 02:55:00,46.2,45.7,30.17,WSW,240,1.0,1.0,98,0.00,,,0.01,WeatherCatV1.10B1784,2013-03-02 10:55:00,
2013-03-02 03:00:00,46.2,45.7,30.17,SSW,208,1.0,1.0,98,0.00,,,0.01,WeatherCatV1.10B1784,2013-03-02 11:00:00,
2013-03-02 03:05:00,46.2,45.7,30.16,SSW,204,1.0,1.0,98,0.00,,,0.01,WeatherCatV1.10B1784,2013-03-02 11:05:00,
2013-03-02 03:10:00,46.1,45.6,30.16,SW,214,0.0,1.0,98,0.00,,,0.01,WeatherCatV1.10B1784,2013-03-02 11:10:00,
2013-03-02 03:15:00,46.1,45.6,30.16,WSW,240,0.0,0.0,98,0.00,,,0.01,WeatherCatV1.10B1784,2013-03-02 11:15:00,
2013-03-02 03:20:00,46.1,45.6,30.16,WSW,250,1.0,1.0,98,0.00,,,0.01,WeatherCatV1.10B1784,2013-03-02 11:20:00,
2013-03-02 03:25:00,46.1,45.6,30.16,WSW,250,0.0,0.0,98,0.00,,,0.01,WeatherCatV1.10B1784,2013-03-02 11:25:00,
2013-03-02 03:30:00,46.1,45.6,30.16,West,259,0.0,1.0,98,0.00,,,0.01,WeatherCatV1.10B1784,2013-03-02 11:30:00,
2013-03-02 03:35:00,46.1,45.6,30.16,West,260,0.0,1.0,98,0.00,,,0.01,WeatherCatV1.10B1784,2013-03-02 11:35:00,
2013-03-02 03:40:00,46.0,45.5,30.15,West,276,0.0,0.0,98,0.00,,,0.01,WeatherCatV1.10B1784,2013-03-02 11:40:00,
2013-03-02 03:45:00,45.9,45.4,30.15,West,276,0.0,1.0,98,0.00,,,0.01,WeatherCatV1.10B1784,2013-03-02 11:45:00,
2013-03-02 03:50:00,45.9,45.4,30.15,ESE,114,3.0,3.0,98,0.00,,,0.01,WeatherCatV1.10B1784,2013-03-02 11:50:00,
2013-03-02 03:55:00,46.0,45.5,30.14,ESE,111,0.0,1.0,98,0.00,,,0.01,WeatherCatV1.10B1784,2013-03-02 11:55:00,
2013-03-02 04:00:00,46.0,45.5,30.14,SE,124,2.0,3.0,98,0.00,,,0.01,WeatherCatV1.10B1784,2013-03-02 12:00:00,
2013-03-02 04:05:00,46.1,45.6,30.14,SE,124,2.0,3.0,98,0.00,,,0.01,WeatherCatV1.10B1784,2013-03-02 12:05:00,
2013-03-02 04:10:00,46.1,45.6,30.14,ESE,122,1.0,2.0,98,0.00,,,0.01,WeatherCatV1.10B1784,2013-03-02 12:10:00,
2013-03-02 04:15:00,46.1,45.6,30.14,SSE,150,0.0,0.0,98,0.00,,,0.01,WeatherCatV1.10B1784,2013-03-02 12:15:00,
2013-03-02 04:20:00,46.1,45.6,30.14,ENE,77,1.0,1.0,98,0.00,,,0.01,WeatherCatV1.10B1784,2013-03-02 12:20:00,
2013-03-02 04:25:00,46.1,45.6,30.14,ENE,77,1.0,1.0,98,0.00,,,0.01,WeatherCatV1.10B1784,2013-03-02 12:25:00,
2013-03-02 04:30:00,46.1,45.6,30.14,ENE,77,0.0,0.0,98,0.00,,,0.01,WeatherCatV1.10B1784,2013-03-02 12:30:00,
2013-03-02 04:35:00,46.1,45.6,30.13,ENE,77,0.0,0.0,98,0.00,,,0.01,WeatherCatV1.10B1784,2013-03-02 12:35:00,
2013-03-02 04:40:00,46.0,45.5,30.14,ENE,77,0.0,0.0,98,0.00,,,0.01,WeatherCatV1.10B1784,2013-03-02 12:40:00,
2013-03-02 04:45:00,45.9,45.4,30.13,ENE,77,0.0,0.0,98,0.00,,,0.01,WeatherCatV1.10B1784,2013-03-02 12:45:00,
2013-03-02 04:50:00,45.8,45.3,30.13,ENE,77,1.0,1.0,98,0.00,,,0.01,WeatherCatV1.10B1784,2013-03-02 12:50:00,
2013-03-02 04:55:00,45.8,45.3,30.13,ENE,77,0.0,0.0,98,0.00,,,0.01,WeatherCatV1.10B1784,2013-03-02 12:55:00,
2013-03-02 05:00:00,45.8,45.3,30.13,ENE,77,0.0,1.0,98,0.00,,,0.01,WeatherCatV1.10B1784,2013-03-02 13:00:00,
2013-03-02 05:05:00,45.7,45.2,30.13,SSW,203,0.0,1.0,98,0.00,,,0.01,WeatherCatV1.10B1784,2013-03-02 13:05:00,
2013-03-02 05:10:00,45.7,45.2,30.13,SSW,205,0.0,0.0,98,0.00,,,0.01,WeatherCatV1.10B1784,2013-03-02 13:10:00,
2013-03-02 05:15:00,45.6,45.1,30.13,SE,136,1.0,1.0,98,0.00,,,0.01,WeatherCatV1.10B1784,2013-03-02 13:15:00,
2013-03-02 05:20:00,45.6,45.1,30.13,SE,134,0.0,0.0,98,0.00,,,0.01,WeatherCatV1.10B1784,2013-03-02 13:20:00,
2013-03-02 05:25:00,45.7,45.2,30.12,SE,131,0.0,1.0,98,0.00,,,0.01,WeatherCatV1.10B1784,2013-03-02 13:25:00,
2013-03-02 05:30:00,45.7,45.2,30.12,SE,131,0.0,0.0,98,0.00,,,0.01,WeatherCatV1.10B1784,2013-03-02 13:30:00,
2013-03-02 05:35:00,45.8,45.3,30.12,ESE,113,1.0,1.0,98,0.00,,,0.01,WeatherCatV1.10B1784,2013-03-02 13:35:00,
2013-03-02 05:40:00,45.8,45.3,30.11,SE,124,0.0,0.0,98,0.00,,,0.01,WeatherCatV1.10B1784,2013-03-02 13:40:00,
2013-03-02 05:45:00,45.7,45.2,30.11,SE,124,0.0,0.0,98,0.00,,,0.01,WeatherCatV1.10B1784,2013-03-02 13:45:00,
2013-03-02 05:50:00,45.6,45.1,30.11,SE,124,0.0,0.0,98,0.00,,,0.01,WeatherCatV1.10B1784,2013-03-02 13:50:00,
2013-03-02 05:55:00,45.5,45.0,30.10,SSW,207,1.0,1.0,98,0.00,,,0.01,WeatherCatV1.10B1784,2013-03-02 13:55:00,
2013-03-02 06:00:00,45.5,45.0,30.10,South,174,1.0,1.0,98,0.00,,,0.01,WeatherCatV1.10B1784,2013-03-02 14:00:00,
2013-03-02 06:05:00,45.6,45.1,30.10,ESE,121,0.0,1.0,98,0.00,,,0.01,WeatherCatV1.10B1784,2013-03-02 14:05:00,
2013-03-02 06:10:00,45.7,45.2,30.10,ESE,120,0.0,1.0,98,0.00,,,0.01,WeatherCatV1.10B1784,2013-03-02 14:10:00,
2013-03-02 06:15:00,45.7,45.2,30.10,East,82,0.0,2.0,98,0.00,,,0.01,WeatherCatV1.10B1784,2013-03-02 14:15:00,
2013-03-02 06:20:00,45.7,45.2,30.09,East,101,0.0,1.0,98,0.00,,,0.01,WeatherCatV1.10B1784,2013-03-02 14:20:00,
2013-03-02 06:25:00,45.7,45.2,30.10,ESE,110,0.0,0.0,98,0.00,,,0.01,WeatherCatV1.10B1784,2013-03-02 14:25:00,
2013-03-02 06:30:00,45.6,45.1,30.10,ESE,110,0.0,0.0,98,0.00,,,0.01,WeatherCatV1.10B1784,2013-03-02 14:30:00,
2013-03-02 06:35:00,45.6,45.1,30.10,ESE,110,0.0,0.0,98,0.00,,,0.01,WeatherCatV1.10B1784,2013-03-02 14:35:00,
2013-03-02 06:40:00,45.6,45.1,30.09,ESE,110,0.0,0.0,98,0.00,,,0.01,WeatherCatV1.10B1784,2013-03-02 14:40:00,
2013-03-02 06:45:00,45.6,45.1,30.09,ESE,110,0.0,1.0,98,0.00,,,0.01,WeatherCatV1.10B1784,2013-03-02 14:45:00,
2013-03-02 06:50:00,45.6,45.1,30.09,West,269,0.0,0.0,98,0.00,,,0.01,WeatherCatV1.10B1784,2013-03-02 14:50:00,
2013-03-02 06:55:00,45.6,45.1,30.09,NW,307,4.0,5.0,98,0.00,,,0.01,WeatherCatV1.10B1784,2013-03-02 14:55:00,
2013-03-02 07:00:00,45.6,45.1,30.10,SW,233,1.0,2.0,98,0.00,,,0.01,WeatherCatV1.10B1784,2013-03-02 15:00:00,
2013-03-02 07:05:00,45.6,45.1,30.10,West,278,0.0,0.0,98,0.00,,,0.01,WeatherCatV1.10B1784,2013-03-02 15:05:00,
2013-03-02 07:10:00,45.7,45.2,30.10,West,278,1.0,1.0,98,0.00,,,0.01,WeatherCatV1.10B1784,2013-03-02 15:10:00,
2013-03-02 07:15:00,45.7,45.2,30.09,West,263,1.0,1.0,98,0.00,,,0.01,WeatherCatV1.10B1784,2013-03-02 15:15:00,
2013-03-02 07:20:00,45.7,45.2,30.09,SW,236,0.0,1.0,98,0.00,,,0.01,WeatherCatV1.10B1784,2013-03-02 15:20:00,
2013-03-02 07:25:00,45.7,45.2,30.09,NW,305,2.0,3.0,98,0.00,,,0.01,WeatherCatV1.10B1784,2013-03-02 15:25:00,
2013-03-02 07:30:00,45.6,45.1,30.09,NW,310,2.0,4.0,98,0.00,,,0.01,WeatherCatV1.10B1784,2013-03-02 15:30:00,
2013-03-02 07:35:00,45.5,45.0,30.09,WNW,288,0.0,1.0,98,0.00,,,0.01,WeatherCatV1.10B1784,2013-03-02 15:35:00,
2013-03-02 07:40:00,45.5,45.0,30.08,WNW,288,0.0,0.0,98,0.00,,,0.01,WeatherCatV1.10B1784,2013-03-02 15:40:00,
2013-03-02 07:45:00,45.5,45.0,30.08,West,262,2.0,2.0,98,0.00,,,0.01,WeatherCatV1.10B1784,2013-03-02 15:45:00,
2013-03-02 07:50:00,45.5,45.0,30.09,WSW,256,0.0,1.0,98,0.00,,,0.01,WeatherCatV1.10B1784,2013-03-02 15:50:00,
2013-03-02 07:55:00,45.4,44.9,30.08,West,259,0.0,1.0,98,0.00,,,0.01,WeatherCatV1.10B1784,2013-03-02 15:55:00,
2013-03-02 08:00:00,45.4,44.9,30.08,West,259,1.0,1.0,98,0.00,,,0.01,WeatherCatV1.10B1784,2013-03-02 16:00:00,
2013-03-02 08:05:00,45.5,45.0,30.08,SW,231,0.0,0.0,98,0.00,,,0.01,WeatherCatV1.10B1784,2013-03-02 16:05:00,
2013-03-02 08:10:00,45.5,45.0,30.08,SW,233,0.0,0.0,98,0.00,,,0.01,WeatherCatV1.10B1784,2013-03-02 16:10:00,
2013-03-02 08:15:00,45.5,45.0,30.08,West,275,1.0,1.0,98,0.00,,,0.01,WeatherCatV1.10B1784,2013-03-02 16:15:00,
2013-03-02 08:20:00,45.4,44.9,30.08,West,280,0.0,0.0,98,0.00,,,0.01,WeatherCatV1.10B1784,2013-03-02 16:20:00,
2013-03-02 08:25:00,45.5,45.0,30.08,West,280,0.0,1.0,98,0.00,,,0.01,WeatherCatV1.10B1784,2013-03-02 16:25:00,
2013-03-02 08:30:00,45.6,45.1,30.08,WSW,240,0.0,0.0,98,0.00,,,0.01,WeatherCatV1.10B1784,2013-03-02 16:30:00,
2013-03-02 08:35:00,45.6,45.1,30.08,West,278,1.0,2.0,98,0.00,,,0.01,WeatherCatV1.10B1784,2013-03-02 16:35:00,
2013-03-02 08:40:00,45.7,45.2,30.07,West,281,0.0,1.0,98,0.00,,,0.01,WeatherCatV1.10B1784,2013-03-02 16:40:00,
2013-03-02 08:45:00,45.8,45.3,30.08,WNW,287,1.0,1.0,98,0.00,,,0.01,WeatherCatV1.10B1784,2013-03-02 16:45:00,
2013-03-02 08:50:00,45.9,45.4,30.07,NW,305,2.0,3.0,98,0.00,,,0.01,WeatherCatV1.10B1784,2013-03-02 16:50:00,
2013-03-02 08:55:00,45.9,45.4,30.07,NW,304,3.0,3.0,98,0.00,,,0.01,WeatherCatV1.10B1784,2013-03-02 16:55:00,
2013-03-02 09:00:00,45.8,45.0,30.07,NW,312,1.0,1.0,97,0.00,,,0.01,WeatherCatV1.10B1784,2013-03-02 17:00:00,
2013-03-02 09:05:00,45.8,45.0,30.07,NW,314,3.0,4.0,97,0.00,,,0.01,WeatherCatV1.10B1784,2013-03-02 17:05:00,
2013-03-02 09:10:00,45.8,45.0,30.07,WNW,298,3.0,4.0,97,0.00,,,0.01,WeatherCatV1.10B1784,2013-03-02 17:10:00,
2013-03-02 09:15:00,45.7,44.9,30.07,WNW,302,1.0,1.0,97,0.00,,,0.01,WeatherCatV1.10B1784,2013-03-02 17:15:00,
2013-03-02 09:20:00,45.9,45.4,30.07,NW,316,2.0,2.0,98,0.00,,,0.01,WeatherCatV1.10B1784,2013-03-02 17:20:00,
2013-03-02 09:25:00,45.9,45.1,30.07,WNW,292,1.0,2.0,97,0.00,,,0.01,WeatherCatV1.10B1784,2013-03-02 17:25:00,
2013-03-02 09:30:00,46.0,45.2,30.07,WNW,296,1.0,2.0,97,0.00,,,0.01,WeatherCatV1.10B1784,2013-03-02 17:30:00,
2013-03-02 09:35:00,46.1,45.3,30.07,NW,307,3.0,4.0,97,0.00,,,0.01,WeatherCatV1.10B1784,2013-03-02 17:35:00,
2013-03-02 09:40:00,46.1,45.3,30.07,NW,304,6.0,6.0,97,0.00,,,0.01,WeatherCatV1.10B1784,2013-03-02 17:40:00,
2013-03-02 09:45:00,46.1,45.3,30.07,NW,308,5.0,6.0,97,0.00,,,0.01,WeatherCatV1.10B1784,2013-03-02 17:45:00,
2013-03-02 09:50:00,46.0,45.2,30.07,NW,307,3.0,5.0,97,0.00,,,0.01,WeatherCatV1.10B1784,2013-03-02 17:50:00,
2013-03-02 09:55:00,46.0,45.2,30.07,WNW,296,3.0,4.0,97,0.00,,,0.01,WeatherCatV1.10B1784,2013-03-02 17:55:00,
2013-03-02 10:00:00,46.0,45.2,30.07,WNW,303,2.0,3.0,97,0.00,,,0.01,WeatherCatV1.10B1784,2013-03-02 18:00:00,
2013-03-02 10:05:00,45.9,45.1,30.07,NW,314,5.0,5.0,97,0.00,,,0.01,WeatherCatV1.10B1784,2013-03-02 18:05:00,
2013-03-02 10:10:00,45.7,44.9,30.07,WNW,298,4.0,5.0,97,0.00,,,0.01,WeatherCatV1.10B1784,2013-03-02 18:10:00,
2013-03-02 10:15:00,45.5,44.7,30.07,NW,316,3.0,3.0,97,0.00,,,0.01,WeatherCatV1.10B1784,2013-03-02 18:15:00,
2013-03-02 10:20:00,45.5,44.7,30.07,NW,304,1.0,3.0,97,0.00,,,0.01,WeatherCatV1.10B1784,2013-03-02 18:20:00,
2013-03-02 10:25:00,45.5,44.7,30.07,WNW,303,2.0,2.0,97,0.00,,,0.01,WeatherCatV1.10B1784,2013-03-02 18:25:00,
2013-03-02 10:30:00,45.5,44.7,30.07,WNW,293,1.0,2.0,97,0.00,,,0.01,WeatherCatV1.10B1784,2013-03-02 18:30:00,
2013-03-02 10:35:00,45.4,44.6,30.06,WNW,303,5.0,5.0,97,0.00,,,0.02,WeatherCatV1.10B1784,2013-03-02 18:35:00,
2013-03-02 10:40:00,45.5,44.7,30.06,WNW,293,1.0,4.0,97,0.00,,,0.02,WeatherCatV1.10B1784,2013-03-02 18:40:00,
2013-03-02 10:45:00,45.4,44.6,30.06,WNW,288,6.0,6.0,97,0.00,,,0.02,WeatherCatV1.10B1784,2013-03-02 18:45:00,
2013-03-02 10:50:00,45.1,44.0,30.06,WNW,303,6.0,7.0,96,0.00,,,0.02,WeatherCatV1.10B1784,2013-03-02 18:50:00,
2013-03-02 10:55:00,44.9,44.1,30.06,NW,308,3.0,7.0,97,0.00,,,0.02,WeatherCatV1.10B1784,2013-03-02 18:55:00,
2013-03-02 11:00:00,44.8,44.0,30.06,NW,315,5.0,7.0,97,0.00,,,0.02,WeatherCatV1.10B1784,2013-03-02 19:00:00,
2013-03-02 11:05:00,44.8,44.0,30.07,NW,305,7.0,9.0,97,0.05,,,0.03,WeatherCatV1.10B1784,2013-03-02 19:05:00,
2013-03-02 11:10:00,44.8,44.0,30.06,WNW,301,6.0,8.0,97,0.10,,,0.04,WeatherCatV1.10B1784,2013-03-02 19:10:00,
2013-03-02 11:15:00,44.7,43.9,30.06,West,280,6.0,9.0,97,0.08,,,0.05,WeatherCatV1.10B1784,2013-03-02 19:15:00,
2013-03-02 11:20:00,44.7,43.9,30.06,WNW,300,3.0,7.0,97,0.08,,,0.05,WeatherCatV1.10B1784,2013-03-02 19:20:00,
2013-03-02 11:25:00,44.6,43.5,30.06,NW,307,5.0,8.0,96,0.05,,,0.05,WeatherCatV1.10B1784,2013-03-02 19:25:00,
2013-03-02 11:30:00,44.6,43.8,30.06,WNW,293,2.0,5.0,97,0.05,,,0.05,WeatherCatV1.10B1784,2013-03-02 19:30:00,
2013-03-02 11:35:00,44.6,43.8,30.06,WNW,293,1.0,1.0,97,0.06,,,0.06,WeatherCatV1.10B1784,2013-03-02 19:35:00,
2013-03-02 11:40:00,44.7,43.9,30.06,NW,316,3.0,3.0,97,0.07,,,0.07,WeatherCatV1.10B1784,2013-03-02 19:40:00,
2013-03-02 11:45:00,44.9,44.1,30.06,West,281,2.0,3.0,97,0.10,,,0.08,WeatherCatV1.10B1784,2013-03-02 19:45:00,
2013-03-02 11:50:00,45.2,44.4,30.06,West,275,1.0,3.0,97,0.13,,,0.09,WeatherCatV1.10B1784,2013-03-02 19:50:00,
2013-03-02 11:55:00,45.4,44.6,30.06,NW,321,2.0,3.0,97,0.08,,,0.09,WeatherCatV1.10B1784,2013-03-02 19:55:00,
2013-03-02 12:00:00,45.4,44.6,30.06,NW,312,5.0,8.0,97,0.06,,,0.09,WeatherCatV1.10B1784,2013-03-02 20:00:00,
2013-03-02 12:05:00,44.9,43.8,30.06,NW,319,10.0,13.0,96,0.04,,,0.09,WeatherCatV1.10B1784,2013-03-02 20:05:00,
2013-03-02 12:10:00,44.6,43.5,30.06,NW,311,8.0,11.0,96,0.04,,,0.10,WeatherCatV1.10B1784,2013-03-02 20:10:00,
2013-03-02 12:15:00,44.5,43.4,30.06,WNW,290,4.0,11.0,96,0.04,,,0.10,WeatherCatV1.10B1784,2013-03-02 20:15:00,
2013-03-02 12:20:00,44.6,43.5,30.06,WNW,300,7.0,7.0,96,0.03,,,0.10,WeatherCatV1.10B1784,2013-03-02 20:20:00,
2013-03-02 12:25:00,44.6,43.5,30.06,NW,321,5.0,7.0,96,0.00,,,0.10,WeatherCatV1.10B1784,2013-03-02 20:25:00,
2013-03-02 12:30:00,44.6,43.5,30.06,NW,322,5.0,10.0,96,0.00,,,0.10,WeatherCatV1.10B1784,2013-03-02 20:30:00,
2013-03-02 12:35:00,44.7,43.6,30.06,WNW,302,8.0,8.0,96,0.00,,,0.10,WeatherCatV1.10B1784,2013-03-02 20:35:00,
2013-03-02 12:40:00,44.7,43.6,30.05,WNW,285,6.0,9.0,96,0.00,,,0.10,WeatherCatV1.10B1784,2013-03-02 20:40:00,
2013-03-02 12:45:00,44.7,43.6,30.05,WNW,297,8.0,9.0,96,0.00,,,0.10,WeatherCatV1.10B1784,2013-03-02 20:45:00,
2013-03-02 12:50:00,44.7,43.6,30.05,WNW,300,5.0,9.0,96,0.00,,,0.11,WeatherCatV1.10B1784,2013-03-02 20:50:00,
2013-03-02 12:55:00,44.8,43.7,30.05,NW,304,3.0,8.0,96,0.00,,,0.11,WeatherCatV1.10B1784,2013-03-02 20:55:00,
2013-03-02 13:00:00,44.8,43.7,30.05,WNW,294,9.0,9.0,96,0.00,,,0.11,WeatherCatV1.10B1784,2013-03-02 21:00:00,
2013-03-02 13:05:00,44.8,43.7,30.05,WNW,284,7.0,8.0,96,0.00,,,0.11,WeatherCatV1.10B1784,2013-03-02 21:05:00,
2013-03-02 13:10:00,45.0,43.9,30.04,NW,305,7.0,7.0,96,0.00,,,0.11,WeatherCatV1.10B1784,2013-03-02 21:10:00,
2013-03-02 13:15:00,45.0,43.9,30.04,NW,308,6.0,9.0,96,0.00,,,0.11,WeatherCatV1.10B1784,2013-03-02 21:15:00,
2013-03-02 13:20:00,45.0,43.9,30.04,NNW,335,7.0,11.0,96,0.00,,,0.11,WeatherCatV1.10B1784,2013-03-02 21:20:00,
2013-03-02 13:25:00,45.1,44.0,30.04,NNW,335,2.0,10.0,96,0.00,,,0.11,WeatherCatV1.10B1784,2013-03-02 21:25:00,
2013-03-02 13:30:00,45.2,44.1,30.04,WNW,300,13.0,13.0,96,0.00,,,0.11,WeatherCatV1.10B1784,2013-03-02 21:30:00,
2013-03-02 13:35:00,45.0,43.7,30.05,North,358,3.0,13.0,95,0.00,,,0.11,WeatherCatV1.10B1784,2013-03-02 21:35:00,
2013-03-02 13:40:00,45.0,43.7,30.05,WNW,297,7.0,15.0,95,0.00,,,0.11,WeatherCatV1.10B1784,2013-03-02 21:40:00,
2013-03-02 13:45:00,45.0,43.4,30.05,WNW,284,7.0,17.0,94,0.00,,,0.11,WeatherCatV1.10B1784,2013-03-02 21:45:00,
2013-03-02 13:50:00,45.2,43.9,30.05,NNW,328,5.0,12.0,95,0.00,,,0.11,WeatherCatV1.10B1784,2013-03-02 21:50:00,
2013-03-02 13:55:00,45.2,43.6,30.05,NNW,330,13.0,14.0,94,0.00,,,0.11,WeatherCatV1.10B1784,2013-03-02 21:55:00,
2013-03-02 14:00:00,45.1,43.5,30.05,NW,308,7.0,14.0,94,0.00,,,0.11,WeatherCatV1.10B1784,2013-03-02 22:00:00,
2013-03-02 14:05:00,45.1,43.5,30.05,NNW,332,14.0,15.0,94,0.00,,,0.11,WeatherCatV1.10B1784,2013-03-02 22:05:00,
2013-03-02 14:10:00,45.2,43.6,30.05,NW,307,8.0,16.0,94,0.00,,,0.11,WeatherCatV1.10B1784,2013-03-02 22:10:00,
2013-03-02 14:15:00,45.0,43.1,30.05,WNW,294,8.0,13.0,93,0.00,,,0.11,WeatherCatV1.10B1784,2013-03-02 22:15:00,
2013-03-02 14:20:00,45.1,43.5,30.05,WNW,294,6.0,11.0,94,0.00,,,0.11,WeatherCatV1.10B1784,2013-03-02 22:20:00,
2013-03-02 14:25:00,45.1,43.2,30.05,West,281,6.0,10.0,93,0.00,,,0.11,WeatherCatV1.10B1784,2013-03-02 22:25:00,
2013-03-02 14:30:00,45.1,43.2,30.05,NW,308,5.0,6.0,93,0.00,,,0.11,WeatherCatV1.10B1784,2013-03-02 22:30:00,
2013-03-02 14:35:00,45.2,43.6,30.04,West,281,3.0,5.0,94,0.00,,,0.11,WeatherCatV1.10B1784,2013-03-02 22:35:00,
2013-03-02 14:40:00,45.3,43.7,30.04,WNW,284,3.0,6.0,94,0.00,,,0.11,WeatherCatV1.10B1784,2013-03-02 22:40:00,
2013-03-02 14:45:00,45.5,43.6,30.04,WNW,300,3.0,7.0,93,0.00,,,0.11,WeatherCatV1.10B1784,2013-03-02 22:45:00,
2013-03-02 14:50:00,45.6,43.7,30.05,West,273,4.0,7.0,93,0.00,,,0.11,WeatherCatV1.10B1784,2013-03-02 22:50:00,
2013-03-02 14:55:00,45.6,43.4,30.05,NW,309,6.0,10.0,92,0.00,,,0.11,WeatherCatV1.10B1784,2013-03-02 22:55:00,
2013-03-02 15:00:00,45.6,43.4,30.05,NW,321,9.0,10.0,92,0.00,,,0.11,WeatherCatV1.10B1784,2013-03-02 23:00:00,
2013-03-02 15:05:00,45.7,43.5,30.05,NW,323,6.0,8.0,92,0.00,,,0.11,WeatherCatV1.10B1784,2013-03-02 23:05:00,
2013-03-02 15:10:00,45.7,43.2,30.05,NW,321,8.0,9.0,91,0.00,,,0.11,WeatherCatV1.10B1784,2013-03-02 23:10:00,
2013-03-02 15:15:00,45.9,43.4,30.05,WNW,300,10.0,10.0,91,0.00,,,0.11,WeatherCatV1.10B1784,2013-03-02 23:15:00,
2013-03-02 15:20:00,46.0,43.2,30.05,NW,318,8.0,12.0,90,0.00,,,0.11,WeatherCatV1.10B1784,2013-03-02 23:20:00,
2013-03-02 15:25:00,46.2,43.4,30.05,NW,319,4.0,10.0,90,0.00,,,0.11,WeatherCatV1.10B1784,2013-03-02 23:25:00,
2013-03-02 15:30:00,46.3,43.2,30.05,WNW,302,14.0,21.0,89,0.00,,,0.11,WeatherCatV1.10B1784,2013-03-02 23:30:00,
2013-03-02 15:35:00,45.6,42.5,30.05,NNW,335,12.0,22.0,89,0.00,,,0.11,WeatherCatV1.10B1784,2013-03-02 23:35:00,
2013-03-02 15:40:00,45.1,42.3,30.05,WNW,282,11.0,17.0,90,0.00,,,0.11,WeatherCatV1.10B1784,2013-03-02 23:40:00,
2013-03-02 15:45:00,44.7,42.5,30.06,NNW,346,8.0,12.0,92,0.00,,,0.11,WeatherCatV1.10B1784,2013-03-02 23:45:00,
2013-03-02 15:50:00,44.3,42.1,30.06,WNW,300,14.0,15.0,92,0.00,,,0.11,WeatherCatV1.10B1784,2013-03-02 23:50:00,
2013-03-02 15:55:00,44.2,42.0,30.06,WNW,300,4.0,15.0,92,0.00,,,0.11,WeatherCatV1.10B1784,2013-03-02 23:55:00,
2013-03-02 16:00:00,44.1,41.9,30.06,NNW,339,10.0,10.0,92,0.00,,,0.11,WeatherCatV1.10B1784,2013-03-03 00:00:00,
2013-03-02 16:05:00,44.0,41.5,30.06,NW,307,13.0,15.0,91,0.00,,,0.11,WeatherCatV1.10B1784,2013-03-03 00:05:00,
2013-03-02 16:10:00,44.5,42.0,30.06,NW,304,4.0,10.0,91,0.00,,,0.11,WeatherCatV1.10B1784,2013-03-03 00:10:00,
2013-03-02 16:15:00,44.7,41.9,30.06,NW,308,5.0,11.0,90,0.00,,,0.11,WeatherCatV1.10B1784,2013-03-03 00:15:00,
2013-03-02 16:20:00,44.6,41.8,30.06,NW,312,5.0,12.0,90,0.00,,,0.11,WeatherCatV1.10B1784,2013-03-03 00:20:00,
2013-03-02 16:25:00,44.6,41.8,30.06,NW,307,6.0,9.0,90,0.00,,,0.11,WeatherCatV1.10B1784,2013-03-03 00:25:00,
2013-03-02 16:30:00,44.4,41.4,30.06,NW,316,11.0,12.0,89,0.00,,,0.11,WeatherCatV1.10B1784,2013-03-03 00:30:00,
2013-03-02 16:35:00,44.4,41.4,30.07,WNW,284,9.0,13.0,89,0.00,,,0.11,WeatherCatV1.10B1784,2013-03-03 00:35:00,
2013-03-02 16:40:00,44.4,41.4,30.07,NW,314,10.0,15.0,89,0.00,,,0.11,WeatherCatV1.10B1784,2013-03-03 00:40:00,
2013-03-02 16:45:00,44.6,41.8,30.07,NW,307,12.0,14.0,90,0.00,,,0.11,WeatherCatV1.10B1784,2013-03-03 00:45:00,
2013-03-02 16:50:00,44.8,41.8,30.07,NNW,335,8.0,13.0,89,0.00,,,0.11,WeatherCatV1.10B1784,2013-03-03 00:50:00,
2013-03-02 16:55:00,44.6,41.6,30.07,NW,305,7.0,10.0,89,0.00,,,0.11,WeatherCatV1.10B1784,2013-03-03 00:55:00,
2013-03-02 17:00:00,44.5,41.5,30.07,NW,314,6.0,11.0,89,0.00,,,0.11,WeatherCatV1.10B1784,2013-03-03 01:00:00,
2013-03-02 17:05:00,44.7,41.7,30.07,WNW,291,6.0,6.0,89,0.00,,,0.11,WeatherCatV1.10B1784,2013-03-03 01:05:00,
2013-03-02 17:10:00,44.7,41.7,30.08,WNW,300,4.0,6.0,89,0.00,,,0.11,WeatherCatV1.10B1784,2013-03-03 01:10:00,
2013-03-02 17:15:00,44.5,41.2,30.08,West,281,6.0,7.0,88,0.00,,,0.11,WeatherCatV1.10B1784,2013-03-03 01:15:00,
2013-03-02 17:20:00,44.3,41.3,30.08,WNW,300,6.0,9.0,89,0.00,,,0.11,WeatherCatV1.10B1784,2013-03-03 01:20:00,
2013-03-02 17:25:00,44.3,41.6,30.08,NW,305,8.0,8.0,90,0.00,,,0.11,WeatherCatV1.10B1784,2013-03-03 01:25:00,
2013-03-02 17:30:00,44.1,41.1,30.08,NW,307,6.0,10.0,89,0.00,,,0.11,WeatherCatV1.10B1784,2013-03-03 01:30:00,
2013-03-02 17:35:00,44.1,41.1,30.08,NW,312,8.0,9.0,89,0.00,,,0.11,WeatherCatV1.10B1784,2013-03-03 01:35:00,
2013-03-02 17:40:00,44.0,41.0,30.08,WNW,296,10.0,11.0,89,0.00,,,0.11,WeatherCatV1.10B1784,2013-03-03 01:40:00,
2013-03-02 17:45:00,44.0,41.0,30.09,WNW,292,6.0,13.0,89,0.00,,,0.11,WeatherCatV1.10B1784,2013-03-03 01:45:00,
2013-03-02 17:50:00,44.0,41.3,30.09,NNW,344,7.0,10.0,90,0.00,,,0.11,WeatherCatV1.10B1784,2013-03-03 01:50:00,
2013-03-02 17:55:00,44.0,41.3,30.09,NW,305,7.0,10.0,90,0.00,,,0.11,WeatherCatV1.10B1784,2013-03-03 01:55:00,
2013-03-02 18:00:00,43.8,41.1,30.09,WNW,300,6.0,8.0,90,0.00,,,0.11,WeatherCatV1.10B1784,2013-03-03 02:00:00,
2013-03-02 18:05:00,43.8,41.1,30.09,WNW,296,9.0,10.0,90,0.00,,,0.11,WeatherCatV1.10B1784,2013-03-03 02:05:00,
2013-03-02 18:10:00,43.5,40.8,30.10,WNW,288,5.0,15.0,90,0.00,,,0.11,WeatherCatV1.10B1784,2013-03-03 02:10:00,
2013-03-02 18:15:00,43.1,40.7,30.10,West,274,7.0,16.0,91,0.00,,,0.11,WeatherCatV1.10B1784,2013-03-03 02:15:00,
2013-03-02 18:20:00,43.2,40.8,30.10,NW,317,13.0,15.0,91,0.00,,,0.11,WeatherCatV1.10B1784,2013-03-03 02:20:00,
2013-03-02 18:25:00,42.9,40.2,30.10,NNW,344,12.0,15.0,90,0.00,,,0.11,WeatherCatV1.10B1784,2013-03-03 02:25:00,
2013-03-02 18:30:00,42.5,39.8,30.11,NW,314,19.0,23.0,90,0.00,,,0.11,WeatherCatV1.10B1784,2013-03-03 02:30:00,
2013-03-02 18:35:00,42.0,39.3,30.11,North,349,12.0,17.0,90,0.00,,,0.11,WeatherCatV1.10B1784,2013-03-03 02:35:00,
2013-03-02 18:40:00,41.7,39.3,30.11,WNW,283,5.0,14.0,91,0.00,,,0.11,WeatherCatV1.10B1784,2013-03-03 02:40:00,
2013-03-02 18:45:00,41.7,39.0,30.11,West,281,12.0,16.0,90,0.00,,,0.11,WeatherCatV1.10B1784,2013-03-03 02:45:00,
2013-03-02 18:50:00,41.5,38.8,30.12,NW,307,10.0,15.0,90,0.00,,,0.11,WeatherCatV1.10B1784,2013-03-03 02:50:00,
2013-03-02 18:55:00,41.4,39.0,30.12,WNW,298,7.0,11.0,91,0.00,,,0.11,WeatherCatV1.10B1784,2013-03-03 02:55:00,
2013-03-02 19:00:00,41.2,38.5,30.12,WNW,288,6.0,10.0,90,0.00,,,0.11,WeatherCatV1.10B1784,2013-03-03 03:00:00,
2013-03-02 19:05:00,41.2,38.8,30.12,WNW,292,9.0,13.0,91,0.00,,,0.11,WeatherCatV1.10B1784,2013-03-03 03:05:00,
2013-03-02 19:10:00,41.3,39.2,30.13,WNW,301,11.0,16.0,92,0.00,,,0.11,WeatherCatV1.10B1784,2013-03-03 03:10:00,
2013-03-02 19:15:00,41.3,38.6,30.13,NW,307,8.0,12.0,90,0.00,,,0.11,WeatherCatV1.10B1784,2013-03-03 03:15:00,
2013-03-02 19:20:00,41.4,39.0,30.13,WNW,285,5.0,9.0,91,0.00,,,0.11,WeatherCatV1.10B1784,2013-03-03 03:20:00,
2013-03-02 19:25:00,41.4,39.0,30.13,NW,312,11.0,16.0,91,0.00,,,0.11,WeatherCatV1.10B1784,2013-03-03 03:25:00,
2013-03-02 19:30:00,41.4,39.0,30.13,NW,308,11.0,12.0,91,0.00,,,0.11,WeatherCatV1.10B1784,2013-03-03 03:30:00,
2013-03-02 19:35:00,41.6,39.2,30.13,NW,322,12.0,19.0,91,0.00,,,0.11,WeatherCatV1.10B1784,2013-03-03 03:35:00,
2013-03-02 19:40:00,41.6,38.9,30.13,NNW,328,11.0,14.0,90,0.00,,,0.11,WeatherCatV1.10B1784,2013-03-03 03:40:00,
2013-03-02 19:45:00,41.7,39.3,30.13,North,6,7.0,14.0,91,0.00,,,0.11,WeatherCatV1.10B1784,2013-03-03 03:45:00,
2013-03-02 19:50:00,41.6,39.2,30.13,West,278,3.0,8.0,91,0.00,,,0.11,WeatherCatV1.10B1784,2013-03-03 03:50:00,
2013-03-02 19:55:00,41.4,39.0,30.13,NW,305,6.0,8.0,91,0.00,,,0.11,WeatherCatV1.10B1784,2013-03-03 03:55:00,
2013-03-02 20:00:00,41.2,38.8,30.14,WNW,302,1.0,3.0,91,0.00,,,0.11,WeatherCatV1.10B1784,2013-03-03 04:00:00,
2013-03-02 20:05:00,41.0,38.6,30.13,West,259,3.0,6.0,91,0.00,,,0.12,WeatherCatV1.10B1784,2013-03-03 04:05:00,
2013-03-02 20:10:00,40.7,38.3,30.13,West,271,4.0,5.0,91,0.00,,,0.12,WeatherCatV1.10B1784,2013-03-03 04:10:00,
2013-03-02 20:15:00,40.4,37.7,30.13,WSW,250,3.0,4.0,90,0.00,,,0.12,WeatherCatV1.10B1784,2013-03-03 04:15:00,
2013-03-02 20:20:00,40.3,37.6,30.13,West,273,1.0,5.0,90,0.00,,,0.12,WeatherCatV1.10B1784,2013-03-03 04:20:00,
2013-03-02 20:25:00,40.0,37.3,30.13,WSW,242,4.0,9.0,90,0.00,,,0.12,WeatherCatV1.10B1784,2013-03-03 04:25:00,
2013-03-02 20:30:00,39.9,37.2,30.13,WSW,255,5.0,7.0,90,0.00,,,0.12,WeatherCatV1.10B1784,2013-03-03 04:30:00,
2013-03-02 20:35:00,39.9,37.2,30.13,SW,221,2.0,7.0,90,0.00,,,0.12,WeatherCatV1.10B1784,2013-03-03 04:35:00,
2013-03-02 20:40:00,39.8,36.8,30.13,SW,223,6.0,7.0,89,0.00,,,0.12,WeatherCatV1.10B1784,2013-03-03 04:40:00,
2013-03-02 20:45:00,39.9,37.2,30.13,SSW,208,3.0,9.0,90,0.00,,,0.12,WeatherCatV1.10B1784,2013-03-03 04:45:00,
2013-03-02 20:50:00,40.0,37.3,30.13,SW,226,7.0,9.0,90,0.00,,,0.12,WeatherCatV1.10B1784,2013-03-03 04:50:00,
2013-03-02 20:55:00,40.2,37.2,30.13,SW,229,7.0,10.0,89,0.00,,,0.12,WeatherCatV1.10B1784,2013-03-03 04:55:00,
2013-03-02 21:00:00,40.3,37.3,30.13,SW,224,7.0,9.0,89,0.00,,,0.12,WeatherCatV1.10B1784,2013-03-03 05:00:00,
2013-03-02 21:05:00,40.4,37.4,30.13,West,259,5.0,8.0,89,0.00,,,0.12,WeatherCatV1.10B1784,2013-03-03 05:05:00,
2013-03-02 21:10:00,40.3,37.3,30.14,SW,231,3.0,8.0,89,0.00,,,0.12,WeatherCatV1.10B1784,2013-03-03 05:10:00,
2013-03-02 21:15:00,40.3,37.3,30.13,SW,228,6.0,9.0,89,0.00,,,0.12,WeatherCatV1.10B1784,2013-03-03 05:15:00,
2013-03-02 21:20:00,40.3,37.3,30.14,WSW,239,6.0,8.0,89,0.00,,,0.12,WeatherCatV1.10B1784,2013-03-03 05:20:00,
2013-03-02 21:25:00,40.4,37.1,30.14,WSW,245,4.0,9.0,88,0.00,,,0.12,WeatherCatV1.10B1784,2013-03-03 05:25:00,
2013-03-02 21:30:00,40.6,37.3,30.14,WSW,241,5.0,9.0,88,0.00,,,0.12,WeatherCatV1.10B1784,2013-03-03 05:30:00,
2013-03-02 21:35:00,40.8,37.2,30.14,WSW,243,8.0,10.0,87,0.00,,,0.12,WeatherCatV1.10B1784,2013-03-03 05:35:00,
2013-03-02 21:40:00,41.2,37.0,30.14,WSW,249,3.0,10.0,85,0.00,,,0.12,WeatherCatV1.10B1784,2013-03-03 05:40:00,
2013-03-02 21:45:00,41.2,37.0,30.15,NW,305,3.0,9.0,85,0.00,,,0.12,WeatherCatV1.10B1784,2013-03-03 05:45:00,
2013-03-02 21:50:00,41.2,37.0,30.15,West,277,6.0,10.0,85,0.00,,,0.12,WeatherCatV1.10B1784,2013-03-03 05:50:00,
2013-03-02 21:55:00,41.3,37.1,30.15,West,273,6.0,9.0,85,0.00,,,0.12,WeatherCatV1.10B1784,2013-03-03 05:55:00,
2013-03-02 22:00:00,41.3,37.1,30.15,West,264,5.0,9.0,85,0.00,,,0.12,WeatherCatV1.10B1784,2013-03-03 06:00:00,
2013-03-02 22:05:00,41.5,37.3,30.15,WNW,297,5.0,10.0,85,0.00,,,0.12,WeatherCatV1.10B1784,2013-03-03 06:05:00,
2013-03-02 22:10:00,41.5,37.0,30.15,West,281,5.0,8.0,84,0.00,,,0.12,WeatherCatV1.10B1784,2013-03-03 06:10:00,
2013-03-02 22:15:00,41.5,37.0,30.15,WSW,250,5.0,11.0,84,0.00,,,0.12,WeatherCatV1.10B1784,2013-03-03 06:15:00,
2013-03-02 22:20:00,41.3,37.1,30.16,West,276,7.0,8.0,85,0.00,,,0.12,WeatherCatV1.10B1784,2013-03-03 06:20:00,
2013-03-02 22:25:00,41.2,37.0,30.16,WNW,298,8.0,8.0,85,0.00,,,0.12,WeatherCatV1.10B1784,2013-03-03 06:25:00,
2013-03-02 22:30:00,41.2,37.0,30.16,WNW,294,3.0,9.0,85,0.00,,,0.12,WeatherCatV1.10B1784,2013-03-03 06:30:00,
2013-03-02 22:35:00,41.1,36.9,30.16,West,263,6.0,9.0,85,0.00,,,0.12,WeatherCatV1.10B1784,2013-03-03 06:35:00,
2013-03-02 22:40:00,41.1,36.6,30.16,SW,232,5.0,10.0,84,0.00,,,0.12,WeatherCatV1.10B1784,2013-03-03 06:40:00,
2013-03-02 22:45:00,41.1,36.6,30.15,WNW,283,5.0,8.0,84,0.00,,,0.12,WeatherCatV1.10B1784,2013-03-03 06:45:00,
2013-03-02 22:50:00,40.8,36.3,30.15,WSW,255,3.0,11.0,84,0.00,,,0.12,WeatherCatV1.10B1784,2013-03-03 06:50:00,
2013-03-02 22:55:00,40.5,36.1,30.15,West,270,6.0,6.0,84,0.00,,,0.12,WeatherCatV1.10B1784,2013-03-03 06:55:00,
2013-03-02 23:00:00,40.5,36.1,30.16,West,264,4.0,9.0,84,0.00,,,0.12,WeatherCatV1.10B1784,2013-03-03 07:00:00,
2013-03-02 23:05:00,40.5,36.1,30.16,WSW,250,6.0,7.0,84,0.00,,,0.12,WeatherCatV1.10B1784,2013-03-03 07:05:00,
2013-03-02 23:10:00,40.3,36.2,30.16,West,277,7.0,10.0,85,0.00,,,0.12,WeatherCatV1.10B1784,2013-03-03 07:10:00,
2013-03-02 23:15:00,40.4,36.3,30.16,West,281,5.0,8.0,85,0.00,,,0.12,WeatherCatV1.10B1784,2013-03-03 07:15:00,
2013-03-02 23:20:00,40.4,36.3,30.16,WNW,295,3.0,8.0,85,0.00,,,0.12,WeatherCatV1.10B1784,2013-03-03 07:20:00,
2013-03-02 23:25:00,40.5,36.4,30.16,SW,226,4.0,8.0,85,0.00,,,0.12,WeatherCatV1.10B1784,2013-03-03 07:25:00,
2013-03-02 23:30:00,40.5,36.4,30.16,WSW,249,9.0,9.0,85,0.00,,,0.12,WeatherCatV1.10B1784,2013-03-03 07:30:00,
2013-03-02 23:35:00,40.4,36.3,30.16,West,267,5.0,8.0,85,0.00,,,0.12,WeatherCatV1.10B1784,2013-03-03 07:35:00,
2013-03-02 23:40:00,40.4,36.3,30.16,SW,230,6.0,8.0,85,0.00,,,0.12,WeatherCatV1.10B1784,2013-03-03 07:40:00,
2013-03-02 23:45:00,40.4,36.0,30.16,WNW,301,8.0,11.0,84,0.00,,,0.12,WeatherCatV1.10B1784,2013-03-03 07:45:00,
2013-03-02 23:50:00,40.4,36.0,30.17,WSW,245,6.0,12.0,84,0.00,,,0.12,WeatherCatV1.10B1784,2013-03-03 07:50:00,
2013-03-02 23:55:00,40.3,35.6,30.17,WNW,283,5.0,10.0,83,0.00,,,0.12,WeatherCatV1.10B1784,2013-03-03 07:55:00,